Weather History for PAOM - May, 2012

Change the Weather History Date:

Wednesday, May 2, 2012

  Actual Average Record
Temperature  
Mean Temperature 15 °F 30 °F  
Max Temperature 16 °F 36 °F 56 °F (2004)
Min Temperature 13 °F 24 °F -11 °F (1949)
Degree Days  
Heating Degree Days 50 35  
Month to date heating degree days 102 70  
Since 1 July heating degree days 13827 12383  
Cooling Degree Days 0    
Month to date cooling degree days 0  
Year to date cooling degree days 0  
Moisture  
Dew Point 9 °F    
Average Humidity 0    
Maximum Humidity 0    
Minimum Humidity 0    
Precipitation  
Precipitation T in 0.02 in 0.46 in (1981)
Month to date precipitation T 0.05  
Year to date precipitation 1.90 3.33  
Snow  
Snow T in 0.20 in 4.60 in (1981)
Month to date snowfall T 0.3  
Since 1 July snowfall 79.7 73.4  
Snow Depth 10.00 in    
Sea Level Pressure  
Sea Level Pressure 29.91 in    
Wind  
Wind Speed 6 mph (SE)    
Max Wind Speed 13 mph    
Max Gust Speed 14 mph    
Visibility 8 miles    
Events Snow    
T = Trace of Precipitation, MM = Missing Value Source: NWS Daily Summary

Daily Weather History Graph

Daily Weather History Graph

Search for Another Location

Airport or City:

Trip Planner

Search our weather history database for the weather conditions in past years. The results will help you decide how hot, cold, wet, or windy it might be!

Date:

Astronomy

May. 02, 2012 Rise Set
Actual Time 6:25 AM AKDT 11:34 PM AKDT
Civil Twilight 5:11 AM AKDT 12:50 AM AKDT
Nautical Twilight 3:31 AM AKDT 2:26 AM AKDT
Astronomical Twilight Sun does not set Sun does not set
Moon 6:51 PM AKDT (5/2) 5:27 AM AKDT (5/2)
Length of Visible Light 19h 39m
Length of Day
17h 09m
Waxing Gibbous, 84% of the Moon is Illuminated
May 2
Waxing Gibbous
May 5
Full
May 12
Last Quarter
May 20
New
May 28
First Quarter

Hourly Weather History & Observations

Time (AKDT) Temp. Windchill Dew Point Humidity Pressure Visibility Wind Dir Wind Speed Gust Speed Precip Events Conditions
12:53 AM 14.0 °F 2.9 °F 8.1 °F 77% 29.97 in 10.0 mi East 8.1 mph - N/A   Mostly Cloudy
1:53 AM 14.0 °F 3.9 °F 8.1 °F 77% 29.97 in 10.0 mi ENE 6.9 mph - N/A   Mostly Cloudy
2:53 AM 14.0 °F 6.5 °F 8.1 °F 77% 29.96 in 10.0 mi East 4.6 mph - 0.00 in Snow Light Snow
3:53 AM 14.0 °F 8.2 °F 8.1 °F 77% 29.96 in 10.0 mi East 3.5 mph - 0.00 in Snow Light Snow
4:53 AM 14.0 °F 6.5 °F 9.0 °F 80% 29.95 in 10.0 mi East 4.6 mph - 0.00 in Snow Light Snow
5:53 AM 14.0 °F 2.9 °F 8.1 °F 77% 29.94 in 10.0 mi NNW 8.1 mph - 0.00 in Snow Light Snow
6:53 AM 14.0 °F 2.9 °F 7.0 °F 74% 29.94 in 10.0 mi NNW 8.1 mph - 0.00 in   Overcast
7:53 AM 12.9 °F 2.6 °F 6.1 °F 74% 29.94 in 10.0 mi North 6.9 mph - N/A   Overcast
8:53 AM 12.9 °F 3.8 °F 5.0 °F 71% 29.93 in 10.0 mi North 5.8 mph - N/A   Overcast
9:53 AM 12.9 °F - 5.0 °F 71% 29.94 in 8.0 mi Calm Calm - 0.00 in   Overcast
10:53 AM 12.9 °F - 6.1 °F 74% 29.94 in 10.0 mi Calm Calm - N/A   Overcast
11:53 AM 12.9 °F 2.6 °F 7.0 °F 77% 29.94 in 10.0 mi SE 6.9 mph - N/A   Overcast
12:53 PM 12.9 °F 3.8 °F 7.0 °F 77% 29.93 in 7.0 mi SSE 5.8 mph - 0.00 in   Overcast
1:53 PM 12.9 °F 2.6 °F 8.1 °F 81% 29.93 in 4.0 mi SSE 6.9 mph - 0.00 in Snow Light Snow
2:53 PM 14.0 °F 5.1 °F 10.0 °F 84% 29.92 in 2.5 mi SSE 5.8 mph - 0.00 in Snow Light Snow
3:10 PM 14.0 °F 5.1 °F 8.6 °F 79% 29.92 in 4.0 mi South 5.8 mph - 0.00 in Snow Light Snow
3:53 PM 16.0 °F 7.4 °F 10.0 °F 77% 29.92 in 10.0 mi South 5.8 mph - 0.00 in   Overcast
4:53 PM 15.1 °F 4.2 °F 10.9 °F 84% 29.90 in 6.0 mi SSW 8.1 mph - 0.00 in Snow Light Snow
5:53 PM 15.1 °F 6.4 °F 12.9 °F 91% 29.89 in 3.0 mi SW 5.8 mph - 0.00 in Snow Light Snow
5:55 PM 15.8 °F 6.1 °F 12.2 °F 86% 29.89 in 3.0 mi WSW 6.9 mph - 0.00 in Snow Light Snow
6:23 PM 15.8 °F 6.1 °F 12.2 °F 86% 29.88 in 2.0 mi SW 6.9 mph - 0.00 in Snow Light Snow
6:53 PM 15.1 °F 5.2 °F 12.0 °F 88% 29.88 in 3.0 mi SW 6.9 mph - 0.00 in Snow Light Snow
7:53 PM 15.1 °F 7.7 °F 10.9 °F 84% 29.87 in 9.0 mi South 4.6 mph - 0.00 in Snow Light Snow
8:53 PM 15.1 °F 9.4 °F 10.0 °F 80% 29.86 in 9.0 mi SSW 3.5 mph - 0.00 in   Mostly Cloudy
9:53 PM 16.0 °F 8.8 °F 10.0 °F 77% 29.86 in 10.0 mi SSE 4.6 mph - N/A   Mostly Cloudy
10:11 PM 15.8 °F 3.4 °F 12.2 °F 86% 29.85 in 2.0 mi ESE 10.4 mph - 0.00 in Snow Light Snow
10:36 PM 14.0 °F 2.9 °F 10.4 °F 86% 29.85 in 3.0 mi East 8.1 mph - 0.00 in Snow Light Snow
10:53 PM 14.0 °F 2.0 °F 10.0 °F 84% 29.86 in 4.0 mi East 9.2 mph - 0.00 in Snow Light Snow
11:53 PM 12.9 °F 2.6 °F 9.0 °F 84% 29.85 in 10.0 mi East 6.9 mph - 0.00 in Snow Light Snow